• In Hungary
  • List of Countries
  • For 7 days
  • Water Temperature
  • Satellite Maps
  • Weather Map
  • News
  • Weather Widgets
  • user-avatar
    Login

    Hourly Weather Bochurino

    Today, 22 July, Sunday

    Time Temperature Precipitation Wind Pressure Humidity
    00:00 +19°C° 0.3 mm 2 mps 743 mmHg 98%
    01:00 +19°C° 0.3 mm 2 mps 743 mmHg 98%
    02:00 +19°C° 0 mm 1 mps 743 mmHg 99%
    03:00 +18°C° 0.3 mm 2 mps 743 mmHg 99%
    04:00 +19°C° 0.3 mm 2 mps 743 mmHg 98%
    05:00 +19°C° 0.3 mm 2 mps 743 mmHg 98%
    06:00 +19°C° 0.1 mm 2 mps 743 mmHg 97%
    07:00 +19°C° 0.1 mm 2 mps 743 mmHg 96%
    08:00 +20°C° 0.1 mm 2 mps 744 mmHg 95%
    09:00 +20°C° 0 mm 3 mps 744 mmHg 93%
    10:00 +21°C° 0 mm 3 mps 744 mmHg 90%
    11:00 +21°C° 0 mm 3 mps 744 mmHg 87%
    12:00 +22°C° 0 mm 3 mps 744 mmHg 83%
    13:00 +24°C° 0 mm 3 mps 743 mmHg 78%
    14:00 +25°C° 0 mm 3 mps 743 mmHg 73%
    15:00 +25°C° 0.1 mm 3 mps 743 mmHg 74%
    16:00 +25°C° 0.1 mm 3 mps 743 mmHg 76%
    17:00 +24°C° 0.1 mm 2 mps 743 mmHg 77%
    18:00 +23°C° 0 mm 2 mps 744 mmHg 82%
    19:00 +21°C° 0 mm 2 mps 744 mmHg 88%
    20:00 +21°C° 0 mm 1 mps 744 mmHg 94%
    21:00 +20°C° 0 mm 1 mps 744 mmHg 94%
    22:00 +20°C° 0 mm 1 mps 744 mmHg 95%
    23:00 +19°C° 0 mm 1 mps 744 mmHg 95%

    Tomorrow, 23 July, Monday

    Time Temperature Precipitation Wind Pressure Humidity
    00:00 +19°C° 0 mm 1 mps 744 mmHg 96%
    01:00 +19°C° 0 mm 1 mps 744 mmHg 96%
    02:00 +19°C° 0 mm 1 mps 745 mmHg 96%
    03:00 +19°C° 0 mm 1 mps 745 mmHg 96%
    04:00 +18°C° 0 mm 2 mps 745 mmHg 95%
    05:00 +18°C° 0 mm 2 mps 745 mmHg 95%
    06:00 +19°C° 0 mm 2 mps 745 mmHg 91%
    07:00 +20°C° 0 mm 2 mps 745 mmHg 86%
    08:00 +21°C° 0 mm 3 mps 745 mmHg 82%
    09:00 +22°C° 0.1 mm 3 mps 745 mmHg 77%
    10:00 +24°C° 0.1 mm 3 mps 745 mmHg 71%
    11:00 +25°C° 0.1 mm 4 mps 746 mmHg 66%
    12:00 +25°C° 0.1 mm 4 mps 745 mmHg 64%
    13:00 +26°C° 0.1 mm 4 mps 745 mmHg 62%
    14:00 +26°C° 0.1 mm 4 mps 745 mmHg 60%
    15:00 +26°C° 0.1 mm 3 mps 745 mmHg 62%
    16:00 +25°C° 0.1 mm 3 mps 745 mmHg 64%
    17:00 +25°C° 0.1 mm 3 mps 745 mmHg 66%
    18:00 +22°C° 0 mm 3 mps 745 mmHg 73%
    19:00 +21°C° 0 mm 2 mps 745 mmHg 80%
    20:00 +19°C° 0 mm 2 mps 745 mmHg 87%
    21:00 +18°C° 0 mm 2 mps 746 mmHg 90%
    22:00 +17°C° 0 mm 2 mps 746 mmHg 92%
    23:00 +16°C° 0 mm 2 mps 746 mmHg 95%

    Day after tomorrow, 24 July, Tuesday

    Time Temperature Precipitation Wind Pressure Humidity
    00:00 +16°C° 0 mm 2 mps 746 mmHg 95%
    01:00 +15°C° 0 mm 2 mps 746 mmHg 96%
    02:00 +15°C° 0 mm 2 mps 746 mmHg 97%
    03:00 +15°C° 0 mm 2 mps 746 mmHg 96%
    04:00 +15°C° 0 mm 2 mps 746 mmHg 94%
    05:00 +15°C° 0 mm 2 mps 746 mmHg 93%
    06:00 +16°C° 0 mm 3 mps 746 mmHg 90%
    07:00 +17°C° 0 mm 3 mps 747 mmHg 88%
    08:00 +17°C° 0 mm 3 mps 747 mmHg 86%
    09:00 +18°C° 0 mm 3 mps 747 mmHg 86%
    10:00 +18°C° 0 mm 3 mps 747 mmHg 86%
    11:00 +18°C° 0 mm 3 mps 747 mmHg 86%
    12:00 +19°C° 0 mm 3 mps 747 mmHg 84%
    13:00 +20°C° 0 mm 3 mps 747 mmHg 82%
    14:00 +21°C° 0 mm 3 mps 747 mmHg 79%
    15:00 +21°C° 0 mm 3 mps 747 mmHg 82%
    16:00 +20°C° 0 mm 3 mps 747 mmHg 84%
    17:00 +20°C° 0 mm 3 mps 747 mmHg 86%
    18:00 +20°C° 0 mm 2 mps 747 mmHg 89%
    19:00 +19°C° 0 mm 2 mps 747 mmHg 91%
    20:00 +19°C° 0 mm 2 mps 747 mmHg 94%
    21:00 +19°C° 0 mm 2 mps 747 mmHg 95%
    22:00 +19°C° 0 mm 2 mps 747 mmHg 96%
    23:00 +18°C° 0 mm 2 mps 747 mmHg 97%

    25 July, Wednesday

    Time Temperature Precipitation Wind Pressure Humidity
    00:00 +18°C° 0.1 mm 2 mps 747 mmHg 98%
    01:00 +18°C° 0.1 mm 2 mps 747 mmHg 98%
    02:00 +18°C° 0.1 mm 2 mps 747 mmHg 98%
    03:00 +18°C° 0.2 mm 2 mps 748 mmHg 98%
    04:00 +18°C° 0.2 mm 2 mps 748 mmHg 98%
    05:00 +19°C° 0.2 mm 2 mps 748 mmHg 97%
    06:00 +20°C° 0 mm 2 mps 748 mmHg 95%
    07:00 +21°C° 0 mm 2 mps 748 mmHg 93%
    08:00 +23°C° 0 mm 2 mps 749 mmHg 90%
    09:00 +24°C° 0 mm 3 mps 749 mmHg 81%
    10:00 +26°C° 0 mm 3 mps 749 mmHg 71%
    11:00 +28°C° 0 mm 3 mps 749 mmHg 61%
    12:00 +28°C° 0.1 mm 3 mps 749 mmHg 57%
    13:00 +29°C° 0.1 mm 4 mps 749 mmHg 52%
    14:00 +30°C° 0.1 mm 4 mps 749 mmHg 48%
    15:00 +29°C° 0 mm 3 mps 749 mmHg 52%
    16:00 +29°C° 0 mm 2 mps 749 mmHg 57%
    17:00 +28°C° 0 mm 2 mps 749 mmHg 61%
    18:00 +27°C° 0 mm 2 mps 749 mmHg 67%
    19:00 +25°C° 0 mm 2 mps 749 mmHg 73%
    20:00 +23°C° 0 mm 2 mps 749 mmHg 79%
    21:00 +21°C° 0 mm 2 mps 749 mmHg 80%
    22:00 +20°C° 0 mm 2 mps 749 mmHg 82%
    23:00 +18°C° 0 mm 2 mps 749 mmHg 84%

    26 July, Thursday

    Time Temperature Precipitation Wind Pressure Humidity
    00:00 +18°C° 0 mm 2 mps 750 mmHg 84%
    01:00 +18°C° 0 mm 2 mps 750 mmHg 84%
    02:00 +17°C° 0 mm 2 mps 750 mmHg 83%
    03:00 +17°C° 0 mm 2 mps 750 mmHg 83%
    04:00 +18°C° 0 mm 2 mps 750 mmHg 83%
    05:00 +18°C° 0 mm 2 mps 751 mmHg 82%
    06:00 +19°C° 0 mm 2 mps 751 mmHg 78%
    07:00 +21°C° 0 mm 2 mps 751 mmHg 73%
    08:00 +24°C° 0 mm 2 mps 751 mmHg 68%
    09:00 +26°C° 0 mm 3 mps 751 mmHg 61%
    10:00 +27°C° 0 mm 3 mps 751 mmHg 54%
    11:00 +29°C° 0 mm 4 mps 751 mmHg 47%
    12:00 +30°C° 0 mm 4 mps 751 mmHg 45%
    13:00 +30°C° 0 mm 4 mps 751 mmHg 43%
    14:00 +32°C° 0 mm 4 mps 751 mmHg 40%
    15:00 +31°C° 0 mm 3 mps 751 mmHg 46%
    16:00 +30°C° 0 mm 3 mps 751 mmHg 51%
    17:00 +30°C° 0 mm 2 mps 751 mmHg 56%
    18:00 +28°C° 0 mm 2 mps 751 mmHg 63%
    19:00 +26°C° 0 mm 2 mps 751 mmHg 70%
    20:00 +24°C° 0 mm 2 mps 751 mmHg 76%
    21:00 +23°C° 0 mm 2 mps 752 mmHg 79%
    22:00 +21°C° 0 mm 2 mps 752 mmHg 82%
    23:00 +20°C° 0 mm 2 mps 752 mmHg 85%

    27 July, Friday

    Time Temperature Precipitation Wind Pressure Humidity
    00:00 +20°C° 0 mm 2 mps 752 mmHg 87%
    01:00 +19°C° 0 mm 2 mps 752 mmHg 88%
    02:00 +19°C° 0 mm 2 mps 753 mmHg 89%
    03:00 +19°C° 0.1 mm 2 mps 753 mmHg 89%
    04:00 +19°C° 0.1 mm 2 mps 753 mmHg 89%
    05:00 +19°C° 0.1 mm 2 mps 753 mmHg 89%
    06:00 +21°C° 0 mm 2 mps 753 mmHg 83%
    07:00 +24°C° 0 mm 2 mps 753 mmHg 77%
    08:00 +26°C° 0 mm 2 mps 753 mmHg 71%
    09:00 +27°C° 0 mm 3 mps 753 mmHg 64%
    10:00 +29°C° 0 mm 3 mps 753 mmHg 57%
    11:00 +30°C° 0 mm 3 mps 753 mmHg 50%
    12:00 +31°C° 0 mm 3 mps 753 mmHg 49%
    13:00 +31°C° 0 mm 3 mps 753 mmHg 48%
    14:00 +31°C° 0 mm 3 mps 753 mmHg 47%
    15:00 +31°C° 0 mm 3 mps 753 mmHg 51%
    16:00 +30°C° 0 mm 2 mps 753 mmHg 56%
    17:00 +30°C° 0 mm 2 mps 753 mmHg 61%
    18:00 +28°C° 0.7 mm 2 mps 753 mmHg 70%
    19:00 +25°C° 0.7 mm 2 mps 753 mmHg 79%
    20:00 +23°C° 0.7 mm 2 mps 753 mmHg 88%
    21:00 +23°C° 0 mm 2 mps 754 mmHg 89%
    22:00 +21°C° 0 mm 2 mps 754 mmHg 90%
    23:00 +20°C° 0 mm 2 mps 754 mmHg 92%
    Show more